Location: Barruelo
(41.2448°N, 3.8231°W)
Time: 04:39:31
(UTC+00:00)

Cosmos 2263 Rocket - Pass Details

Date: 11 December 2025
Orbit: 821 x 849 km, 71.0° (Epoch: 13 January)

Event Time Altitude Azimuth Distance (km) Brightness Sun altitude
Rises 18:20:55 0° 338° (NNW) 3,408 5.4 -17.1°
Reaches altitude 10° 18:23:24 10° 342° (NNW) 2,472 4.7 -17.6°
Maximum altitude 18:29:02 64° 64° (ENE) 936 2.1 -18.6°
Drops below altitude 10° 18:34:40 10° 146° (SE) 2,466 4.4 -19.6°
Sets 18:37:08 0° 149° (SSE) 3,398 5.2 -20.1°
